Regional Weather Roundup
Issued by NWS Green Bay, WI

Home | Current Version | Previous Version | Graphics & Text | Print | Product List | Glossary Off
Versions: 1 2 3 4 5 6 7 8 9 10 11 12 13 14 15 16 17 18 19 20 21 22 23 24 25 26 27 28 29 30 31 32 33 34 35 36 37 38 39 40 41 42 43 44 45 46 47 48 49 50

000
ASUS43 KGRB 232059
RWRGRB

NORTH-CENTRAL AND NORTHEAST WISCONSIN REGIONAL WEATHER ROUNDUP
NATIONAL WEATHER SERVICE GREEN BAY WI
400 PM CDT WED APR 23 2014

WIZ005-009-010>012-018-019-232200-
NORTH CENTRAL WISCONSIN

CITY           SKY/WX    TMP DP  RH WIND       PRES   REMARKS
IRONWOOD       PTSUNNY   54  19  26 SE10      30.02F
MANITOWISH WTR NOT AVBL
ARBOR VITAE    NOT AVBL
EAGLE RIVER    NOT AVBL
LAND O LAKES   NOT AVBL
RHINELANDER    CLOUDY    52  20  28 SE7       30.07F
PHILLIPS       NOT AVBL
ANTIGO         NOT AVBL
TOMAHAWK       NOT AVBL
MERRILL        NOT AVBL
$$

WIZ013-073-232200-
NORTHEAST WISCONSIN

CITY           SKY/WX    TMP DP  RH WIND       PRES   REMARKS
IRON MOUNTAIN  PTSUNNY   54  15  21 E9        30.08F
MARINETTE      MOSUNNY   46  12  25 SE10      30.15F
$$

WIZ017-030-035>037-045-232200-
CENTRAL WISCONSIN

CITY           SKY/WX    TMP DP  RH WIND       PRES   REMARKS
MEDFORD        NOT AVBL
WAUSAU         CLOUDY    51  23  33 SE7       30.08F
MOSINEE        SUNNY     50  23  34 SE12      30.11F
MARSHFIELD     CLOUDY    50  24  36 SE8       30.08F
WISC RAPIDS    CLOUDY    52  20  28 SE9       30.11S
STEVENS POINT  NOT AVBL
WAUPACA        NOT AVBL
SHAWANO        NOT AVBL
CLINTONVILLE   NOT AVBL
$$

WIZ038-039-048-051-232200-
FOX VALLEY

CITY           SKY/WX    TMP DP  RH WIND       PRES   REMARKS
NWS GREEN BAY  CLOUDY    50  23  34 E9        30.14F
APPLETON       PTSUNNY   50  21  32 VRB5      30.13F
OSHKOSH        CLOUDY    50  25  37 E7        30.12F
FOND DU LAC    CLOUDY    52  27  38 E7        30.12F
$$

WIZ022-050-052-232200-
EAST CENTRAL WISCONSIN

CITY           SKY/WX    TMP DP  RH WIND       PRES   REMARKS
STURGEON BAY   MOSUNNY   45   9  23 E9        30.16F
MANITOWOC      NOT AVBL
SHEBOYGAN      CLOUDY    44  19  36 NE10      30.16S
$$

LMZ563-521-522-541>543-232200-
LAKESHORE

STATION/POSITION TIME  TEMP    WIND        PRES    VSBY  WAVE
                       AIR SEA DIR/SP/G                  HT/PER
                 (UTC) (F)     (DEG/KT/KT) (MB)    (MI)  (FT/S)
SHEBOYGAN LKSHOR 2000   36      70/  8/  8 1022.6F
KEWAUNEE LKSHORE 2000   38      70/  4/  5 1022.3F
NORTHPORT PIER   2000   38     140/  7/  8 1021.7F
STURGEON BAY CG  2000   41      70/  4     1022.6   3 1/2  1
MENOMINEE LKSHOR 2000   39     120/  4/  5 1021.8F
$$



USA.gov is the U.S. government's official web portal to all federal, state and local government web resources and services.